Simultaneous Nadir Overpasses (SNOs) Predictions

Prediction of SNOs between GOES-14 and AQUA Satellite Orbit:

Table of predicted SNOs for the next 14.0 days since TLE Epoch: 6/10/2023
Index Date Time (GOES-14) GOES-14 Lat,Lon AQUA Lat,Lon Distance(km) Time Diff (sec)
1 06/10/2023 08:54:06 -0.00,-108.69 -0.59,-105.93 314.10 80
2 06/10/2023 21:12:21 0.03,-108.61 -0.47,-111.00 271.05 80
3 06/12/2023 21:00:55 0.02,-108.62 0.24,-107.56 120.15 80
4 06/13/2023 09:19:02 -0.05,-108.70 0.76,-112.60 443.07 80
5 06/15/2023 09:04:55 -0.05,-108.70 0.07,-109.15 52.02 80
6 06/17/2023 08:53:29 -0.05,-108.69 -0.71,-105.72 339.09 80
7 06/17/2023 21:11:43 0.08,-108.60 -0.39,-110.78 247.41 80
8 06/19/2023 21:00:16 0.07,-108.60 0.37,-107.34 144.12 80
9 06/20/2023 09:18:21 -0.10,-108.70 0.66,-112.37 417.77 80
10 06/22/2023 09:06:53 -0.10,-108.69 -0.07,-108.93 26.12 80
